Free aircraft booking by Goboko

Please sign in again to see your flying group's details

Sign in

Goboko Update

Goboko is set to continue

The Goboko booking system is to continue under a new operator, a member of one of our longest-subscribed flying clubs

The new and previous operators of the site are working to ensure there will be no interruption to your booking service as the transition takes place. Of course, aircraft booking will continue to be free

Thank you for your continued commitment to Goboko

Info

Aviation weather

METAR KDAB 220553Z 21004KT 10SM FEW040 SCT250 24/24 A3009 RMK AO2 SLP187 T02390239 10256 20239 58004

Aviation weather from ADDS. Re-check weather before flight.

-